EW4271 Weather Reports


time (UTC)temp
F
wind
direction
speed
knots
gust
knots
rain 1hr
in
rain 24hr
in
rain mn
in
humidity
%
barometer
mb
20260509033126 64 5 2.6 3.5 0.00 0.00 0.00 23 1019.4
20260509032639 64 313 0.0 0.0 0.00 0.00 0.00 22 1019.4
20260509032134 64 313 0.0 0.0 0.00 0.00 0.00 23 1019.3
20260509031647 65 313 0.0 0.0 0.00 0.00 0.00 22 1019.3
20260509031139 65 313 0.0 0.9 0.00 0.00 0.00 22 1019.2
20260509030633 66 293 0.0 3.5 0.00 0.00 0.00 21 1019.2
20260509030131 66 328 1.7 3.5 0.00 0.00 0.00 21 1019.2
20260509025624 66 335 0.9 3.5 0.00 0.00 0.00 21 1019.1
20260509025137 66 343 0.9 2.6 0.00 0.00 0.00 21 1019.0
20260509024632 66 326 0.9 5.2 0.00 0.00 0.00 20 1018.9
20260509024125 67 263 1.7 5.2 0.00 0.00 0.00 20 1018.9
20260509023637 67 315 1.7 7.0 0.00 0.00 0.00 20 1018.9
20260509023151 67 51 1.7 7.0 0.00 0.00 0.00 20 1018.8
20260509022625 67 350 2.6 7.0 0.00 0.00 0.00 19 1018.7
20260509022123 67 78 1.7 7.0 0.00 0.00 0.00 20 1018.6
20260509021637 67 29 2.6 6.1 0.00 0.00 0.00 19 1018.5
20260509021132 67 14 1.7 3.5 0.00 0.00 0.00 19 1018.5
20260509020626 68 327 0.9 2.6 0.00 0.00 0.00 20 1018.4
20260509020139 68 15 0.0 2.6 0.00 0.00 0.00 19 1018.3
20260509015634 68 333 1.7 2.6 0.00 0.00 0.00 19 1018.2
20260509015126 68 21 0.9 3.5 0.00 0.00 0.00 18 1018.1
20260509014641 68 341 0.9 6.1 0.00 0.00 0.00 18 1018.1
20260509014138 68 355 2.6 6.1 0.00 0.00 0.00 18 1018.0
20260509013633 69 96 0.9 1.7 0.00 0.00 0.00 17 1018.0
20260509013127 70 265 0.0 1.7 0.00 0.00 0.00 17 1017.9
20260509012641 70 265 0.0 2.6 0.00 0.00 0.00 16 1017.7
20260509012154 70 265 0.0 3.5 0.00 0.00 0.00 16 1017.7
20260509011626 71 101 0.9 3.5 0.00 0.00 0.00 16 1017.6
20260509011140 71 94 0.9 3.5 0.00 0.00 0.00 16 1017.6
20260509010634 71 33 0.9 3.5 0.00 0.00 0.00 16 1017.7
20260509010133 71 19 1.7 3.5 0.00 0.00 0.00 15 1017.6
20260509005627 72 351 1.7 2.6 0.00 0.00 0.00 15 1017.6
20260509005141 72 246 0.9 4.3 0.00 0.00 0.00 15 1017.6
20260509004634 72 320 2.6 4.3 0.00 0.00 0.00 15 1017.6
20260509004146 72 78 1.7 8.7 0.00 0.00 0.00 15 1017.5
20260509003640 72 60 2.6 8.7 0.00 0.00 0.00 14 1017.5
20260509003134 73 329 1.7 5.2 0.00 0.00 0.00 15 1017.6
20260509002648 73 323 0.9 7.0 0.00 0.00 0.00 15 1017.5
20260509002141 73 41 2.6 7.0 0.00 0.00 0.00 15 1017.6
20260509001655 74 42 1.7 4.3 0.00 0.00 0.00 15 1017.6
20260509001131 74 311 1.7 5.2 0.00 0.00 0.00 15 1017.6
20260509000625 75 17 1.7 5.2 0.00 0.00 0.00 15 1017.5
20260509000200 75 324 1.7 7.0 0.00 0.00 0.00 15 1017.4
20260508235653 74 236 1.7 7.0 0.00 0.00 0.00 14 1017.4
20260508235126 74 240 1.7 7.0 0.00 0.00 0.00 14 1017.4
20260508234700 74 328 2.6 7.0 0.00 0.00 0.00 15 1017.5
20260508234133 74 229 2.6 4.3 0.00 0.00 0.00 14 1017.3
20260508233627 74 202 2.6 6.1 0.00 0.00 0.00 15 1017.5
20260508233141 74 258 1.7 6.1 0.00 0.00 0.00 16 1017.3
20260508232635 74 203 2.6 6.1 0.00 0.00 0.00 16 1017.4
20260508232132 74 115 2.6 6.1 0.00 0.00 0.00 16 1017.3
20260508231627 74 154 2.6 6.1 0.00 0.00 0.00 16 1017.3
20260508231141 74 252 0.9 2.6 0.00 0.00 0.00 16 1017.2
20260508230655 74 122 0.9 2.6 0.00 0.00 0.00 16 1017.2
20260508230128 74 158 0.0 3.5 0.00 0.00 0.00 16 1017.2
20260508225640 74 142 1.7 3.5 0.00 0.00 0.00 16 1017.2
20260508225134 74 146 1.7 3.5 0.00 0.00 0.00 17 1017.2
20260508224627 74 340 0.9 4.3 0.00 0.00 0.00 17 1017.3
20260508224125 74 150 1.7 4.3 0.00 0.00 0.00 17 1017.4
20260508223640 73 127 0.9 4.3 0.00 0.00 0.00 17 1017.4
20260508223153 72 341 1.7 4.3 0.00 0.00 0.00 17 1017.4
20260508222625 72 149 1.7 2.6 0.00 0.00 0.00 17 1017.6
20260508222139 72 86 0.0 3.5 0.00 0.00 0.00 17 1017.6
20260508221653 72 86 1.7 3.5 0.00 0.00 0.00 17 1017.6
20260508221125 73 128 0.9 6.1 0.00 0.00 0.00 17 1017.7
20260508220639 73 97 2.6 6.1 0.00 0.00 0.00 16 1017.6
20260508220151 74 161 1.7 6.1 0.00 0.00 0.00 16 1017.7
20260508215645 74 120 1.7 10.4 0.00 0.00 0.00 16 1017.8
20260508215157 75 157 0.9 7.8 0.00 0.00 0.00 17 1017.8
20260508214649 74 150 2.6 5.2 0.00 0.00 0.00 17 1017.8
20260508214125 74 152 0.9 4.3 0.00 0.00 0.00 16 1017.8
20260508213636 75 87 0.9 6.1 0.00 0.00 0.00 17 1017.8
20260508213131 75 86 1.7 7.8 0.00 0.00 0.00 17 1017.8
20260508212644 74 74 1.7 7.8 0.00 0.00 0.00 16 1017.8
20260508212137 74 340 0.9 6.1 0.00 0.00 0.00 17 1018.0
20260508211630 75 327 1.7 3.5 0.00 0.00 0.00 16 1017.9
20260508211124 75 5 1.7 5.2 0.00 0.00 0.00 16 1018.0
20260508210657 75 247 1.7 5.2 0.00 0.00 0.00 16 1018.1
20260508210130 76 318 1.7 6.1 0.00 0.00 0.00 16 1018.2
20260508205627 76 355 1.7 6.1 0.00 0.00 0.00 17 1018.2
20260508205141 75 59 1.7 7.8 0.00 0.00 0.00 17 1018.2
20260508204634 75 63 3.5 7.8 0.00 0.00 0.00 16 1018.2
20260508204148 75 152 2.6 6.1 0.00 0.00 0.00 16 1018.3
20260508203641 76 261 1.7 6.1 0.00 0.00 0.00 16 1018.5
20260508203134 75 101 1.7 4.3 0.00 0.00 0.00 16 1018.5
20260508202627 74 154 2.6 8.7 0.00 0.00 0.00 17 1018.5
20260508202140 74 294 4.3 8.7 0.00 0.00 0.00 17 1018.7
20260508201634 74 107 1.7 8.7 0.00 0.00 0.00 17 1018.7
20260508201132 74 149 3.5 8.7 0.00 0.00 0.00 16 1018.8
20260508200625 74 130 3.5 8.7 0.00 0.00 0.00 16 1018.8
20260508200159 73 157 1.7 7.0 0.00 0.00 0.00 17 1018.8
20260508195631 74 31 1.7 8.7 0.00 0.00 0.00 17 1019.0
20260508195125 73 155 2.6 8.7 0.00 0.00 0.00 17 1019.0
20260508194638 73 131 4.3 7.8 0.00 0.00 0.00 17 1019.0
20260508194133 72 159 1.7 9.6 0.00 0.00 0.00 18 1019.1
20260508193626 72 171 1.7 6.1 0.00 0.00 0.00 17 1019.2
20260508193143 72 254 2.6 7.0 0.00 0.00 0.00 17 1019.2
20260508192657 73 161 1.7 7.0 0.00 0.00 0.00 17 1019.1
20260508192128 73 135 2.6 7.8 0.00 0.00 0.00 17 1019.2
20260508191643 73 142 2.6 7.8 0.00 0.00 0.00 17 1019.2
20260508191136 73 188 1.7 5.2 0.00 0.00 0.00 18 1019.4
20260508190629 73 46 0.9 7.0 0.00 0.00 0.00 18 1019.3
20260508190142 73 112 1.7 6.1 0.00 0.00 0.00 18 1019.4
20260508185636 72 83 1.7 6.1 0.00 0.00 0.00 18 1019.5
20260508185133 72 53 2.6 7.0 0.00 0.00 0.00 19 1019.4
20260508184627 71 203 2.6 7.8 0.00 0.00 0.00 18 1019.7
20260508184140 71 119 2.6 7.8 0.00 0.00 0.00 19 1019.7
20260508183634 70 167 1.7 4.3 0.00 0.00 0.00 17 1019.7
20260508183126 70 262 2.6 7.8 0.00 0.00 0.00 18 1019.8
20260508182640 70 192 3.5 8.7 0.00 0.00 0.00 18 1019.9
20260508182154 70 90 3.5 8.7 0.00 0.00 0.00 18 1019.8
20260508181625 70 68 3.5 6.1 0.00 0.00 0.00 19 1019.9
20260508181123 70 171 3.5 6.1 0.00 0.00 0.00 19 1020.0
20260508180656 70 138 1.7 5.2 0.00 0.00 0.00 18 1020.1
20260508180128 70 178 2.6 9.6 0.00 0.00 0.00 19 1020.2
20260508175641 70 140 3.5 9.6 0.00 0.00 0.00 19 1020.2
20260508175135 70 150 2.6 7.8 0.00 0.00 0.00 19 1020.3
20260508174628 69 134 1.7 7.8 0.00 0.00 0.00 20 1020.3
20260508174143 69 140 2.6 9.6 0.00 0.00 0.00 18 1020.3
20260508173637 69 148 4.3 7.0 0.00 0.00 0.00 19 1020.4
20260508173131 69 20 1.7 3.5 0.00 0.00 0.00 20 1020.6
20260508172629 68 146 2.6 9.6 0.00 0.00 0.00 20 1020.6
20260508172203 69 138 5.2 9.6 0.00 0.00 0.00 19 1020.6
20260508171636 68 163 4.3 8.7 0.00 0.00 0.00 21 1020.7
20260508171130 66 175 1.7 6.1 0.00 0.00 0.00 21 1020.8
20260508170624 66 113 1.7 9.6 0.00 0.00 0.00 21 1020.8
20260508170139 66 141 3.5 9.6 0.00 0.00 0.00 21 1020.9
20260508165633 65 32 2.6 5.2 0.00 0.00 0.00 22 1020.8
20260508165127 64 51 3.5 4.3 0.00 0.00 0.00 22 1020.8
20260508164625 65 69 0.9 7.0 0.00 0.00 0.00 23 1021.0
20260508164139 65 248 1.7 7.0 0.00 0.00 0.00 21 1021.0
20260508163653 65 36 1.7 6.1 0.00 0.00 0.00 21 1021.1
20260508163145 65 150 1.7 6.1 0.00 0.00 0.00 22 1021.0
20260508162637 65 108 1.7 6.1 0.00 0.00 0.00 22 1021.1
20260508162150 64 157 2.6 5.2 0.00 0.00 0.00 24 1021.1
20260508161641 64 147 2.6 6.1 0.00 0.00 0.00 23 1021.1
20260508161135 63 43 1.7 3.5 0.00 0.00 0.00 23 1021.1
20260508160629 63 55 2.6 4.3 0.00 0.00 0.00 23 1021.2
20260508160203 64 144 1.7 6.1 0.00 0.00 0.00 23 1021.2
20260508155636 63 143 1.7 5.2 0.00 0.00 0.00 25 1021.2
20260508155154 62 65 1.7 4.3 0.00 0.00 0.00 25 1021.2
20260508154626 61 178 1.7 5.2 0.00 0.00 0.00 26 1021.3
20260508154140 60 46 3.5 5.2 0.00 0.00 0.00 25 1021.3
20260508153632 60 53 3.5 5.2 0.00 0.00 0.00 25 1021.3
20260508153125 60 154 2.6 7.0 0.00 0.00 0.00 25 1021.3
20260508152659 60 49 3.5 5.2 0.00 0.00 0.00 24 1021.4
20260508152132 60 91 1.7 4.3 0.00 0.00 0.00 24 1021.3
20260508151645 60 162 1.7 4.3 0.00 0.00 0.00 25 1021.3
20260508151138 59 171 1.7 3.5 0.00 0.00 0.00 25 1021.4
20260508150635 59 49 0.9 3.5 0.00 0.00 0.00 25 1021.4
20260508150129 59 35 1.7 3.5 0.00 0.00 0.00 25 1021.5
20260508145642 59 59 0.9 4.3 0.00 0.00 0.00 27 1021.4
20260508145156 59 169 2.6 4.3 0.00 0.00 0.00 25 1021.5
20260508144628 58 142 1.7 2.6 0.00 0.00 0.00 26 1021.4
20260508144201 57 113 0.9 4.3 0.00 0.00 0.00 27 1021.5
20260508143653 57 156 1.7 4.3 0.00 0.00 0.00 27 1021.4
20260508143126 55 136 0.9 3.5 0.00 0.00 0.00 28 1021.5
20260508142639 54 59 0.9 2.6 0.00 0.00 0.00 29 1021.5
20260508142133 53 79 0.9 2.6 0.00 0.00 0.00 31 1021.4
20260508141630 52 38 1.7 2.6 0.00 0.00 0.00 31 1021.4
20260508141144 50 144 0.0 1.7 0.00 0.00 0.00 34 1021.3
20260508140636 49 144 0.0 1.7 0.00 0.00 0.00 41 1021.3
20260508140150 48 144 0.0 0.9 0.00 0.00 0.00 42 1021.3
20260508135642 47 144 0.0 0.0 0.00 0.00 0.00 45 1021.3
20260508135155 46 144 0.0 0.0 0.00 0.00 0.00 45 1021.3
20260508134626 46 144 0.0 0.0 0.00 0.00 0.00 43 1021.3